This is the latest recevied weather packets stored in our database for station/object KB1JL-13. If no packets are shown the sender has not sent any weather packets the latest 1 day(s).
| Time | Temp. | Humidity | Pressure | Rain* | Wind** | Luminosity | Snow |
|---|---|---|---|---|---|---|---|
| 1836274744 | 16.11° C | 73% | 1031.5 hPa | 0 mm | 0.45 m/s, 81° | 0 W/m² | - |
| 1836274442 | 16.11° C | 72% | 1031.5 hPa | 0 mm | 0 m/s | 0 W/m² | - |
| 1836274295 | 16.67° C | 72% | 1031.5 hPa | 0 mm | 0.45 m/s, 30° | 0 W/m² | - |
| 1836274140 | 16.11° C | 71% | 1031.5 hPa | 0 mm | 0 m/s | 0 W/m² | - |
| 1778046605 | 14.44° C | 90% | 1022.6 hPa | 0 mm | 0.45 m/s, 168° | 0 W/m² | - |
| 1778046302 | 14.44° C | 89% | 1022.2 hPa | 0 mm | 0.45 m/s, 173° | 0 W/m² | - |
| 1778045997 | 14.44° C | 89% | 1022.6 hPa | 0 mm | 0 m/s | 0 W/m² | - |
| 1778045696 | 14.44° C | 89% | 1022.6 hPa | 0 mm | 0.89 m/s, 179° | 0 W/m² | - |
| 1778045394 | 14.44° C | 89% | 1022.6 hPa | 0 mm | 1.34 m/s, 124° | 0 W/m² | - |
| 1778045093 | 14.44° C | 89% | 1022.2 hPa | 0 mm | 1.79 m/s, 200° | 0 W/m² | - |
| 1778044790 | 14.44° C | 88% | 1022.6 hPa | 0 mm | 1.34 m/s, 182° | 0 W/m² | - |
| 1778044486 | 14.44° C | 88% | 1022.6 hPa | 0 mm | 1.34 m/s, 184° | 0 W/m² | - |
| 1778044183 | 14.44° C | 88% | 1022.6 hPa | 0 mm | 1.34 m/s, 176° | 0 W/m² | - |
| 1778043881 | 15° C | 88% | 1023 hPa | 0 mm | 1.34 m/s, 185° | 0 W/m² | - |
| 1778043578 | 15° C | 87% | 1022.6 hPa | 0 mm | 1.34 m/s, 174° | 0 W/m² | - |
| 1778043275 | 15° C | 87% | 1022.6 hPa | 0 mm | 0 m/s | 0 W/m² | - |
| 1778042971 | 15° C | 86% | 1022.6 hPa | 0 mm | 0.45 m/s, 154° | 0 W/m² | - |
| 1778042670 | 15.56° C | 86% | 1022.2 hPa | 0 mm | 0 m/s | 0 W/m² | - |
| 1778042366 | 15.56° C | 86% | 1022.6 hPa | 0 mm | 0 m/s | 0 W/m² | - |
| 1778042063 | 15.56° C | 85% | 1023 hPa | 0 mm | 0 m/s | 0 W/m² | - |
| 1778041761 | 15.56° C | 85% | 1022.6 hPa | 0 mm | 0.45 m/s, 191° | 0 W/m² | - |
| 1778041460 | 15.56° C | 84% | 1022.2 hPa | 0 mm | 0 m/s | 0 W/m² | - |
| 1778041158 | 15.56° C | 84% | 1023 hPa | 0 mm | 0 m/s | 0 W/m² | - |
| 1778040855 | 15.56° C | 84% | 1023 hPa | 0 mm | 0 m/s | 0 W/m² | - |
| 1778040552 | 16.11° C | 83% | 1022.6 hPa | 0 mm | 0 m/s | 0 W/m² | - |
* Rain latest hour (hover to see other rain measurements)
** Current wind speed in m/s (hover to see current wind gust speed)